Showing default

LANDSAT 3, 10702

Orbit data source: Space-Track

LANDSAT 3, 10702 is a payload satellite owned by GSFC (US) in SSO that was launched on Sun, 05 Mar 1978 UTC via a DELTA 2910 launch vehicle from the Air Force Western Test Range (AFWTR). Payload-class satellites include a variety of spacecraft equipped with specific instruments for various scientific and technological missions. These include communications satellites like Starlink; space stations such as the ISS; scientific satellites like the Hubble; Earth observation satellites from companies like Planet Labs, Umbra, and HawkEye 360; GPS; miniature CubeSats for education and research; and military/defense satellites.

Loading next visibility...
Identifier
10702, 1978-026A
Orbit
SSO
Country
Flag of USUS
Related business
Manufacturer
GE/MSVD
Mission
Non-operational spacecraft
Bus & Motor
NIMBUS, Unknown motor
Mass
900 kg wet, 900 kg dry
Launch date (UTC)
1978-03-05 (48 years ago)
Launch vehicle
DELTA 2910
Launch site
Air Force Western Test Range (AFWTR)
Object type
Payload
Rocket body
Debris
Shape & HBR
Unknown
Radar Cross Section
Large (>1 m²)

Expand to show TLE details & history
Last TLE update: 2 days ago

TLE from 2 days ago
0 LANDSAT 3
1 10702U 78026A   26171.45923920  .00000190  00000-0  16776-3 0  9994
2 10702  99.0676 126.6138 0015445 132.9749 335.7068 13.96997287461936
Epoch: 2026-06-20T11:01Z
TLE epoch observation values (Epoch: 2026-06-20T11:01:18.266Z)
Latitude
69.44873°
Longitude
-102.33265°
Altitude
905.921 km
Speed
7.411 km/s
True Right ascension
22h 06m 40s
True Declination
69° 20' 16"
Sunlit
Object was in daylight at epoch
Visualization orbit readout
Latitude
Unknown
Longitude
Unknown
Altitude
Unknown
Speed
Unknown
Apparent Right ascension
Unknown
Apparent Declination
Unknown
Sunlit
N/A
Visualization observer readout
Local Sidereal Time
23:20:03
Azimuth
Unknown
Elevation
Unknown
Doppler factor
Unknown
Orbital elements
Apogee altitude
912.662 km
Perigee altitude
890.175 km
Semi-major axis
7,279.555 km
Eccentricity
0.00154
Inclination
99.0676°
RAAN
126.6138°
Arg. of periapsis
132.9749°
True anomaly
335.63386°
Mean anomaly
335.7068°
Eccentric anomaly
335.67034°
Mean motion
3.49451 °/min
Orbital period
103.02 mins
BSTAR
0.00016776
Loading maneuver chart data...
Computing Atmospheric mass density...
Loading historical data...
Loading historical data...
Loading historical data...
Loading historical data...
Loading historical data...
Loading historical data...
Loading historical data...

Documentation

Showing up to 5 results
|